Regional Weather Roundup
Issued by NWS

Home | Current Version | Previous Version | Graphics & Text | Print | Product List | Glossary On
Versions: 1 2 3 4 5 6 7 8 9 10 11 12 13 14 15 16 17 18 19 20 21 22 23 24 25 26 27 28 29 30 31 32 33 34 35 36 37 38 39 40 41 42 43 44 45 46 47 48 49 50
000
ASUS43 KBIS 292002
RWRND

NORTH DAKOTA REGIONAL WEATHER ROUNDUP
NATIONAL WEATHER SERVICE BISMARCK ND
300 PM CDT MON AUG 29 2016

NOTE: "FAIR" INDICATES FEW OR NO CLOUDS BELOW 12,000 FEET WITH NO
SIGNIFICANT WEATHER AND/OR OBSTRUCTIONS TO VISIBILITY.


NDZ001>003-009>011-017-292100-
NORTHWEST NORTH DAKOTA

CITY           SKY/WX    TMP DP  RH WIND       PRES   REMARKS
WILLISTON      SUNNY     78  39  24 N5        30.28F
MINOT          SUNNY     73  44  35 CALM      30.26F
MINOT AFB      SUNNY     73  44  34 N7        30.25F
$$

NDZ018>021-031>035-040>046-292100-
SOUTHWEST NORTH DAKOTA

CITY           SKY/WX    TMP DP  RH WIND       PRES   REMARKS
BISMARCK       SUNNY     79  52  38 VRB6      30.25F
DICKINSON      SUNNY     79  43  27 E12       30.27F
GARRISON         N/A     78  47  33 NE7       30.27S
HETTINGER ARPT SUNNY     80  49  33 E10       30.29F
$$

NDZ004>008-012>016-024-026-027-054-292100-
NORTHEAST NORTH DAKOTA

CITY           SKY/WX    TMP DP  RH WIND       PRES   REMARKS
GRAND FORKS    MOSUNNY   80  61  52 NW9       30.15S
GRND FRKS AFB  SUNNY     80  59  48 NW10G18   30.17S
DEVILS LAKE    SUNNY     72  50  45 NW12      30.23F
$$

NDZ022-023-025-028>030-036>039-047>053-292100-
SOUTHEAST NORTH DAKOTA

CITY           SKY/WX    TMP DP  RH WIND       PRES   REMARKS
FARGO          PTSUNNY   81  68  64 N9        30.15S
JAMESTOWN      SUNNY     77  59  53 NW13      30.21F
$$





USA.gov is the U.S. government's official web portal to all federal, state and local government web resources and services.